Weather History for PABI - November, 2012

Change the Weather History Date:

Friday, November 30, 2012

  Actual Average Record
Temperature  
Mean Temperature -28 °F -  
Max Temperature -23 °F 9 °F 46 °F (2002)
Min Temperature -33 °F -1 °F -33 °F (2012)
Degree Days  
Heating Degree Days 93    
Moisture  
Dew Point -33 °F    
Average Humidity 72    
Maximum Humidity 78    
Minimum Humidity 58    
Precipitation  
Precipitation 0.00 in - - ()
Sea Level Pressure  
Sea Level Pressure 30.30 in    
Wind  
Wind Speed 1 mph (SE)    
Max Wind Speed 6 mph    
Max Gust Speed -    
Visibility 10 miles    
Events      
Averages and records for this station are not official NWS values.
T = Trace of Precipitation, MM = Missing Value Source: NWS Daily Summary

Daily Weather History Graph

Daily Weather History Graph

Search for Another Location

Airport or City:

Trip Planner

Search our weather history database for the weather conditions in past years. The results will help you decide how hot, cold, wet, or windy it might be!

Date:

Astronomy

Nov. 30, 2012 Rise Set
Actual Time 9:58 AM AKST 3:04 PM AKST
Civil Twilight 8:48 AM AKST 4:14 PM AKST
Nautical Twilight 7:43 AM AKST 5:19 PM AKST
Astronomical Twilight 6:45 AM AKST 6:17 PM AKST
Moon 5:16 PM AKST (11/30) 11:30 AM AKST (11/30)
Length of Visible Light 7h 25m
Length of Day
5h 06m
Waning Gibbous, 95% of the Moon is Illuminated
Nov 30
Waning Gibbous
Dec 6
Last Quarter
Dec 12
New
Dec 19
First Quarter
Dec 28
Full

Hourly Weather History & Observations

Time (AKST) Temp. Windchill Dew Point Humidity Pressure Visibility Wind Dir Wind Speed Gust Speed Precip Events Conditions
12:53 AM -29.0 °F - -36.0 °F 69% 30.36 in 10.0 mi Calm Calm - N/A   Clear
1:53 AM -31.0 °F - - N/A% 30.37 in 10.0 mi Calm Calm - N/A   Clear
2:53 AM -29.9 °F - - N/A% 30.36 in 10.0 mi Calm Calm - N/A   Clear
3:53 AM -29.0 °F - -35.0 °F 73% 30.37 in 10.0 mi Calm Calm - N/A   Clear
4:53 AM -32.1 °F - - N/A% 30.36 in 10.0 mi Calm Calm - N/A   Clear
5:53 AM -29.0 °F - -35.0 °F 73% 30.36 in 10.0 mi Calm Calm - N/A   Clear
6:53 AM -29.0 °F -41.0 °F -36.9 °F 66% 30.35 in 10.0 mi SSE 3.5 mph - N/A   Clear
7:53 AM -31.0 °F -43.3 °F - N/A% 30.35 in 10.0 mi South 3.5 mph - N/A   Clear
8:53 AM -32.1 °F - - N/A% 30.34 in 10.0 mi Calm Calm - N/A   Clear
9:53 AM -31.0 °F - - N/A% 30.35 in 10.0 mi Calm Calm - N/A   Clear
10:53 AM -31.0 °F - - N/A% 30.35 in 10.0 mi Calm Calm - N/A   Clear
11:53 AM -29.0 °F - -34.1 °F 77% 30.35 in 10.0 mi Calm Calm - N/A   Clear
12:53 PM -25.1 °F - -29.9 °F 78% 30.31 in 10.0 mi Calm Calm - N/A   Clear
1:53 PM -26.0 °F - -33.0 °F 69% 30.32 in 10.0 mi Calm Calm - N/A   Clear
2:53 PM -26.0 °F - -32.1 °F 73% 30.31 in 10.0 mi Calm Calm - N/A   Partly Cloudy
3:53 PM -24.0 °F -37.9 °F -29.9 °F 74% 30.28 in 10.0 mi SE 4.6 mph - N/A   Partly Cloudy
4:53 PM -27.9 °F -42.5 °F -34.1 °F 73% 30.29 in 10.0 mi East 4.6 mph - N/A   Clear
5:53 PM -26.0 °F -37.5 °F -31.0 °F 77% 30.29 in 10.0 mi SE 3.5 mph - N/A   Clear
6:53 PM -27.9 °F - -33.0 °F 77% 30.28 in 10.0 mi Calm Calm - N/A   Clear
7:53 PM -29.9 °F - - N/A% 30.27 in 10.0 mi Calm Calm - N/A   Clear
8:53 PM -31.0 °F - - N/A% 30.26 in 10.0 mi Calm Calm - N/A   Clear
9:29 PM -27.4 °F -41.9 °F -32.8 °F 75% 29.98 in 10.0 mi East 4.6 mph - N/A   Clear
9:53 PM -27.0 °F -41.5 °F -33.0 °F 73% 30.24 in 10.0 mi ESE 4.6 mph - N/A   Clear
10:53 PM -29.0 °F -46.0 °F -35.0 °F 73% 30.22 in 10.0 mi ESE 5.8 mph - N/A   Clear
11:53 PM -27.9 °F - -35.0 °F 69% 30.22 in 10.0 mi Calm Calm - N/A   Clear